Time,TemperatureF,DewpointF,PressureIn,WindDirection,WindDirectionDegrees,WindSpeedMPH,WindSpeedGustMPH,Humidity,HourlyPrecipIn,Conditions,Clouds,dailyrainin,SoftwareType,DateUTC
2013-08-13 00:00:00,81.0,72.3,29.89,North,360,0.0,0.0,75,0.00,,,0.00,Wunderground v.1.15,2013-08-13 04:00:00,
2013-08-13 00:02:00,81.0,72.3,29.89,North,360,0.0,0.0,75,0.00,,,0.00,Wunderground v.1.15,2013-08-13 04:02:00,
2013-08-13 00:03:00,80.9,72.2,29.89,North,360,0.0,0.0,75,0.00,,,0.00,Wunderground v.1.15,2013-08-13 04:03:00,
2013-08-13 00:05:00,81.0,72.3,29.89,North,360,0.0,0.0,75,0.00,,,0.00,Wunderground v.1.15,2013-08-13 04:05:00,
2013-08-13 00:07:00,81.0,72.3,29.89,North,360,0.0,3.0,75,0.00,,,0.00,Wunderground v.1.15,2013-08-13 04:07:00,
2013-08-13 00:09:00,81.0,72.3,29.89,North,360,0.0,3.0,75,0.00,,,0.00,Wunderground v.1.15,2013-08-13 04:09:00,
2013-08-13 00:11:00,81.0,71.9,29.89,North,360,1.0,5.0,74,0.00,,,0.00,Wunderground v.1.15,2013-08-13 04:11:00,
2013-08-13 00:14:00,81.0,71.9,29.88,North,360,2.0,5.0,74,0.00,,,0.00,Wunderground v.1.15,2013-08-13 04:14:00,
2013-08-13 00:15:00,81.0,71.9,29.88,North,360,2.0,5.0,74,0.00,,,0.00,Wunderground v.1.15,2013-08-13 04:15:00,
2013-08-13 00:19:00,81.0,71.9,29.88,North,360,3.0,3.0,74,0.00,,,0.00,Wunderground v.1.15,2013-08-13 04:19:00,
2013-08-13 00:21:00,80.9,71.8,29.88,North,360,3.0,3.0,74,0.00,,,0.00,Wunderground v.1.15,2013-08-13 04:21:00,
2013-08-13 00:25:00,80.9,71.8,29.88,North,360,3.0,7.0,74,0.00,,,0.00,Wunderground v.1.15,2013-08-13 04:25:00,
2013-08-13 00:27:00,80.8,71.7,29.88,North,360,3.0,7.0,74,0.00,,,0.00,Wunderground v.1.15,2013-08-13 04:27:00,
2013-08-13 00:32:00,80.6,71.9,29.88,North,360,3.0,6.0,75,0.00,,,0.00,Wunderground v.1.15,2013-08-13 04:32:00,
2013-08-13 00:37:00,80.4,72.1,29.88,North,360,3.0,6.0,76,0.00,,,0.00,Wunderground v.1.15,2013-08-13 04:37:00,
2013-08-13 00:39:00,80.4,72.1,29.88,North,360,3.0,3.0,76,0.00,,,0.00,Wunderground v.1.15,2013-08-13 04:39:00,
2013-08-13 00:41:00,80.3,72.0,29.88,North,360,2.0,3.0,76,0.00,,,0.00,Wunderground v.1.15,2013-08-13 04:41:00,
2013-08-13 00:46:00,80.3,72.0,29.88,North,360,2.0,3.0,76,0.00,,,0.00,Wunderground v.1.15,2013-08-13 04:46:00,
2013-08-13 00:48:00,80.3,72.0,29.88,North,360,1.0,3.0,76,0.00,,,0.00,Wunderground v.1.15,2013-08-13 04:48:00,
2013-08-13 00:49:00,80.3,72.4,29.88,North,360,1.0,1.0,77,0.00,,,0.00,Wunderground v.1.15,2013-08-13 04:49:00,
2013-08-13 00:51:00,80.2,72.3,29.88,North,360,2.0,3.0,77,0.00,,,0.00,Wunderground v.1.15,2013-08-13 04:51:00,
2013-08-13 00:56:00,80.2,72.3,29.88,North,360,2.0,3.0,77,0.00,,,0.00,Wunderground v.1.15,2013-08-13 04:56:00,
2013-08-13 00:59:00,80.0,72.5,29.88,North,360,2.0,2.0,78,0.00,,,0.00,Wunderground v.1.15,2013-08-13 04:59:00,
2013-08-13 01:01:00,79.9,72.8,29.87,North,360,3.0,3.0,79,0.00,,,0.00,Wunderground v.1.15,2013-08-13 05:01:00,
2013-08-13 01:04:00,79.8,72.7,29.87,North,360,3.0,3.0,79,0.00,,,0.00,Wunderground v.1.15,2013-08-13 05:04:00,
2013-08-13 01:05:00,79.7,72.6,29.87,North,360,3.0,3.0,79,0.00,,,0.00,Wunderground v.1.15,2013-08-13 05:05:00,
2013-08-13 01:10:00,79.6,72.9,29.87,North,360,3.0,5.0,80,0.00,,,0.00,Wunderground v.1.15,2013-08-13 05:10:00,
2013-08-13 01:11:00,79.6,72.9,29.87,North,360,2.0,5.0,80,0.00,,,0.00,Wunderground v.1.15,2013-08-13 05:11:00,
2013-08-13 01:13:00,79.6,72.9,29.87,North,360,2.0,6.0,80,0.00,,,0.00,Wunderground v.1.15,2013-08-13 05:13:00,
2013-08-13 01:15:00,79.6,73.3,29.87,North,360,3.0,6.0,81,0.00,,,0.00,Wunderground v.1.15,2013-08-13 05:15:00,
2013-08-13 01:18:00,79.6,73.3,29.87,North,360,3.0,6.0,81,0.00,,,0.00,Wunderground v.1.15,2013-08-13 05:18:00,
2013-08-13 01:21:00,79.5,73.2,29.86,North,360,4.0,4.0,81,0.00,,,0.00,Wunderground v.1.15,2013-08-13 05:21:00,
2013-08-13 01:24:00,79.5,73.2,29.86,North,360,4.0,6.0,81,0.00,,,0.00,Wunderground v.1.15,2013-08-13 05:24:00,
2013-08-13 01:29:00,79.5,73.2,29.86,North,360,5.0,5.0,81,0.00,,,0.00,Wunderground v.1.15,2013-08-13 05:29:00,
2013-08-13 01:34:00,79.5,73.2,29.86,North,360,5.0,5.0,81,0.00,,,0.00,Wunderground v.1.15,2013-08-13 05:34:00,
2013-08-13 01:35:00,79.5,73.2,29.86,North,360,4.0,5.0,81,0.00,,,0.00,Wunderground v.1.15,2013-08-13 05:35:00,
2013-08-13 01:37:00,79.5,73.5,29.86,North,360,3.0,5.0,82,0.00,,,0.00,Wunderground v.1.15,2013-08-13 05:37:00,
2013-08-13 01:40:00,79.5,73.2,29.86,North,360,2.0,2.0,81,0.00,,,0.00,Wunderground v.1.15,2013-08-13 05:40:00,
2013-08-13 01:41:00,79.6,73.3,29.86,North,360,1.0,2.0,81,0.00,,,0.00,Wunderground v.1.15,2013-08-13 05:41:00,
2013-08-13 01:43:00,79.7,73.3,29.86,North,360,1.0,3.0,81,0.00,,,0.00,Wunderground v.1.15,2013-08-13 05:43:00,
2013-08-13 01:45:00,79.8,73.1,29.86,North,360,1.0,3.0,80,0.00,,,0.00,Wunderground v.1.15,2013-08-13 05:45:00,
2013-08-13 01:48:00,79.8,73.1,29.86,North,360,2.0,3.0,80,0.00,,,0.00,Wunderground v.1.15,2013-08-13 05:48:00,
2013-08-13 01:49:00,79.9,73.2,29.86,North,360,2.0,2.0,80,0.00,,,0.00,Wunderground v.1.15,2013-08-13 05:49:00,
2013-08-13 01:54:00,80.1,73.4,29.86,North,360,1.0,2.0,80,0.00,,,0.00,Wunderground v.1.15,2013-08-13 05:54:00,
2013-08-13 01:56:00,80.1,73.4,29.86,North,360,1.0,2.0,80,0.00,,,0.00,Wunderground v.1.15,2013-08-13 05:56:00,
2013-08-13 01:57:00,80.1,73.4,29.86,North,360,0.0,2.0,80,0.00,,,0.00,Wunderground v.1.15,2013-08-13 05:57:00,
2013-08-13 01:59:00,80.0,73.6,29.86,North,360,0.0,5.0,81,0.00,,,0.00,Wunderground v.1.15,2013-08-13 05:59:00,
2013-08-13 02:01:00,80.0,73.6,29.85,North,360,1.0,5.0,81,0.00,,,0.00,Wunderground v.1.15,2013-08-13 06:01:00,
2013-08-13 02:07:00,80.0,73.6,29.85,North,360,2.0,5.0,81,0.00,,,0.00,Wunderground v.1.15,2013-08-13 06:07:00,
2013-08-13 02:09:00,79.9,73.9,29.85,North,360,2.0,2.0,82,0.00,,,0.00,Wunderground v.1.15,2013-08-13 06:09:00,
2013-08-13 02:11:00,79.9,73.9,29.85,North,360,2.0,2.0,82,0.00,,,0.00,Wunderground v.1.15,2013-08-13 06:11:00,
2013-08-13 02:15:00,79.8,74.2,29.85,North,360,2.0,3.0,83,0.00,,,0.00,Wunderground v.1.15,2013-08-13 06:15:00,
2013-08-13 02:17:00,79.7,74.1,29.84,North,360,4.0,5.0,83,0.00,,,0.00,Wunderground v.1.15,2013-08-13 06:17:00,
2013-08-13 02:19:00,79.6,74.3,29.84,North,360,3.0,3.0,84,0.00,,,0.00,Wunderground v.1.15,2013-08-13 06:19:00,
2013-08-13 02:21:00,79.6,74.3,29.84,North,360,3.0,7.0,84,0.00,,,0.00,Wunderground v.1.15,2013-08-13 06:21:00,
2013-08-13 02:24:00,79.5,74.2,29.84,North,360,4.0,7.0,84,0.00,,,0.00,Wunderground v.1.15,2013-08-13 06:24:00,
2013-08-13 02:26:00,79.4,74.1,29.84,North,360,4.0,7.0,84,0.00,,,0.00,Wunderground v.1.15,2013-08-13 06:26:00,
2013-08-13 02:27:00,79.4,74.1,29.83,North,360,3.0,7.0,84,0.00,,,0.00,Wunderground v.1.15,2013-08-13 06:27:00,
2013-08-13 02:31:00,79.2,74.3,29.83,North,360,4.0,5.0,85,0.00,,,0.00,Wunderground v.1.15,2013-08-13 06:31:00,
2013-08-13 02:34:00,79.1,74.2,29.83,North,360,4.0,6.0,85,0.00,,,0.00,Wunderground v.1.15,2013-08-13 06:34:00,
2013-08-13 02:37:00,79.0,74.5,29.83,North,360,5.0,9.0,86,0.00,,,0.00,Wunderground v.1.15,2013-08-13 06:37:00,
2013-08-13 02:42:00,78.9,74.4,29.83,North,360,6.0,7.0,86,0.00,,,0.00,Wunderground v.1.15,2013-08-13 06:42:00,
2013-08-13 02:45:00,78.8,74.3,29.83,North,360,6.0,7.0,86,0.00,,,0.00,Wunderground v.1.15,2013-08-13 06:45:00,
2013-08-13 02:48:00,78.7,74.2,29.83,North,360,6.0,9.0,86,0.00,,,0.00,Wunderground v.1.15,2013-08-13 06:48:00,
2013-08-13 02:49:00,78.7,74.5,29.83,North,360,7.0,7.0,87,0.00,,,0.00,Wunderground v.1.15,2013-08-13 06:49:00,
2013-08-13 02:51:00,78.7,74.5,29.83,North,360,7.0,12.0,87,0.00,,,0.00,Wunderground v.1.15,2013-08-13 06:51:00,
2013-08-13 02:54:00,78.6,74.4,29.83,North,360,8.0,12.0,87,0.00,,,0.00,Wunderground v.1.15,2013-08-13 06:54:00,
2013-08-13 02:56:00,78.5,74.3,29.83,North,360,8.0,12.0,87,0.00,,,0.00,Wunderground v.1.15,2013-08-13 06:56:00,
2013-08-13 02:57:00,78.5,74.3,29.83,North,360,8.0,12.0,87,0.00,,,0.00,Wunderground v.1.15,2013-08-13 06:57:00,
2013-08-13 02:59:00,78.5,74.3,29.83,North,360,7.0,7.0,87,0.00,,,0.00,Wunderground v.1.15,2013-08-13 06:59:00,
2013-08-13 03:04:00,78.5,74.3,29.83,North,360,6.0,7.0,87,0.00,,,0.00,Wunderground v.1.15,2013-08-13 07:04:00,
2013-08-13 03:05:00,78.5,74.3,29.83,North,360,5.0,7.0,87,0.00,,,0.00,Wunderground v.1.15,2013-08-13 07:05:00,
2013-08-13 03:12:00,78.5,74.3,29.83,North,360,3.0,10.0,87,0.00,,,0.00,Wunderground v.1.15,2013-08-13 07:12:00,
2013-08-13 03:13:00,78.5,74.3,29.83,North,360,3.0,10.0,87,0.00,,,0.00,Wunderground v.1.15,2013-08-13 07:13:00,
2013-08-13 03:17:00,78.5,74.3,29.83,North,360,5.0,10.0,87,0.00,,,0.00,Wunderground v.1.15,2013-08-13 07:17:00,
2013-08-13 03:19:00,78.5,74.6,29.83,North,360,6.0,6.0,88,0.00,,,0.00,Wunderground v.1.15,2013-08-13 07:19:00,
2013-08-13 03:21:00,78.5,74.6,29.83,North,360,6.0,6.0,88,0.00,,,0.00,Wunderground v.1.15,2013-08-13 07:21:00,
2013-08-13 03:26:00,78.4,74.2,29.82,North,360,7.0,11.0,87,0.00,,,0.00,Wunderground v.1.15,2013-08-13 07:26:00,
2013-08-13 03:27:00,78.5,74.3,29.82,North,360,7.0,11.0,87,0.00,,,0.00,Wunderground v.1.15,2013-08-13 07:27:00,
2013-08-13 03:29:00,78.4,74.2,29.82,North,360,7.0,7.0,87,0.00,,,0.00,Wunderground v.1.15,2013-08-13 07:29:00,
2013-08-13 03:34:00,78.4,74.5,29.82,North,360,7.0,8.0,88,0.00,,,0.00,Wunderground v.1.15,2013-08-13 07:34:00,
2013-08-13 03:35:00,78.4,74.2,29.82,North,360,6.0,8.0,87,0.00,,,0.00,Wunderground v.1.15,2013-08-13 07:35:00,
2013-08-13 03:37:00,78.4,74.2,29.82,North,360,5.0,8.0,87,0.00,,,0.00,Wunderground v.1.15,2013-08-13 07:37:00,
2013-08-13 03:39:00,78.4,74.2,29.82,North,360,4.0,4.0,87,0.00,,,0.00,Wunderground v.1.15,2013-08-13 07:39:00,
2013-08-13 03:44:00,78.4,74.2,29.82,North,360,4.0,5.0,87,0.00,,,0.00,Wunderground v.1.15,2013-08-13 07:44:00,
2013-08-13 03:45:00,78.4,74.2,29.82,North,360,5.0,8.0,87,0.00,,,0.00,Wunderground v.1.15,2013-08-13 07:45:00,
2013-08-13 03:47:00,78.4,74.2,29.81,North,360,6.0,11.0,87,0.00,,,0.00,Wunderground v.1.15,2013-08-13 07:47:00,
2013-08-13 03:50:00,78.5,74.3,29.81,North,360,7.0,7.0,87,0.00,,,0.00,Wunderground v.1.15,2013-08-13 07:50:00,
2013-08-13 03:53:00,78.4,74.2,29.81,North,360,9.0,12.0,87,0.00,,,0.00,Wunderground v.1.15,2013-08-13 07:53:00,
2013-08-13 03:56:00,78.4,74.2,29.81,North,360,9.0,12.0,87,0.00,,,0.00,Wunderground v.1.15,2013-08-13 07:56:00,
2013-08-13 04:01:00,78.4,74.2,29.81,North,360,7.0,8.0,87,0.00,,,0.00,Wunderground v.1.15,2013-08-13 08:01:00,
2013-08-13 04:04:00,78.4,74.2,29.81,North,360,7.0,8.0,87,0.00,,,0.00,Wunderground v.1.15,2013-08-13 08:04:00,
2013-08-13 04:05:00,78.4,74.2,29.81,North,360,7.0,14.0,87,0.00,,,0.00,Wunderground v.1.15,2013-08-13 08:05:00,
2013-08-13 04:07:00,78.4,74.2,29.81,North,360,7.0,14.0,87,0.00,,,0.00,Wunderground v.1.15,2013-08-13 08:07:00,
2013-08-13 04:14:00,78.4,74.2,29.81,North,360,9.0,10.0,87,0.00,,,0.00,Wunderground v.1.15,2013-08-13 08:14:00,
2013-08-13 04:17:00,78.2,74.0,29.81,North,360,9.0,13.0,87,0.00,,,0.00,Wunderground v.1.15,2013-08-13 08:17:00,
2013-08-13 04:20:00,78.2,74.4,29.81,North,360,10.0,10.0,88,0.00,,,0.00,Wunderground v.1.15,2013-08-13 08:20:00,
2013-08-13 04:21:00,78.2,74.4,29.81,North,360,10.0,10.0,88,0.00,,,0.00,Wunderground v.1.15,2013-08-13 08:21:00,
2013-08-13 04:28:00,78.1,74.3,29.81,North,360,10.0,14.0,88,0.00,,,0.00,Wunderground v.1.15,2013-08-13 08:28:00,
2013-08-13 04:34:00,78.1,74.3,29.80,North,360,8.0,12.0,88,0.00,,,0.00,Wunderground v.1.15,2013-08-13 08:34:00,
2013-08-13 04:35:00,78.1,74.3,29.80,North,360,9.0,12.0,88,0.00,,,0.00,Wunderground v.1.15,2013-08-13 08:35:00,
2013-08-13 04:37:00,78.1,74.6,29.80,North,360,9.0,12.0,89,0.00,,,0.00,Wunderground v.1.15,2013-08-13 08:37:00,
2013-08-13 04:39:00,78.1,74.6,29.80,North,360,10.0,11.0,89,0.00,,,0.00,Wunderground v.1.15,2013-08-13 08:39:00,
2013-08-13 04:41:00,78.1,74.6,29.80,North,360,10.0,11.0,89,0.00,,,0.00,Wunderground v.1.15,2013-08-13 08:41:00,
2013-08-13 04:43:00,78.1,74.6,29.79,North,360,10.0,11.0,89,0.00,,,0.00,Wunderground v.1.15,2013-08-13 08:43:00,
2013-08-13 04:45:00,78.1,74.6,29.79,North,360,9.0,11.0,89,0.00,,,0.00,Wunderground v.1.15,2013-08-13 08:45:00,
2013-08-13 04:49:00,78.1,74.6,29.78,North,360,8.0,8.0,89,0.00,,,0.00,Wunderground v.1.15,2013-08-13 08:49:00,
2013-08-13 04:51:00,78.1,74.6,29.78,North,360,7.0,8.0,89,0.00,,,0.00,Wunderground v.1.15,2013-08-13 08:51:00,
2013-08-13 04:54:00,78.1,74.6,29.78,North,360,7.0,9.0,89,0.00,,,0.00,Wunderground v.1.15,2013-08-13 08:54:00,
2013-08-13 04:55:00,78.1,74.6,29.78,North,360,7.0,11.0,89,0.00,,,0.00,Wunderground v.1.15,2013-08-13 08:55:00,
2013-08-13 04:59:00,78.0,74.5,29.78,North,360,9.0,9.0,89,0.00,,,0.00,Wunderground v.1.15,2013-08-13 08:59:00,
2013-08-13 05:01:00,78.0,74.5,29.78,North,360,8.0,9.0,89,0.00,,,0.00,Wunderground v.1.15,2013-08-13 09:01:00,
2013-08-13 05:04:00,78.0,74.5,29.78,North,360,8.0,9.0,89,0.00,,,0.00,Wunderground v.1.15,2013-08-13 09:04:00,
2013-08-13 05:07:00,78.0,74.5,29.78,North,360,7.0,9.0,89,0.00,,,0.00,Wunderground v.1.15,2013-08-13 09:07:00,
2013-08-13 05:09:00,78.0,74.5,29.78,North,360,7.0,7.0,89,0.00,,,0.00,Wunderground v.1.15,2013-08-13 09:09:00,
2013-08-13 05:12:00,78.0,74.5,29.78,North,360,6.0,7.0,89,0.00,,,0.00,Wunderground v.1.15,2013-08-13 09:12:00,
2013-08-13 05:13:00,78.0,74.5,29.77,North,360,6.0,7.0,89,0.00,,,0.00,Wunderground v.1.15,2013-08-13 09:13:00,
2013-08-13 05:15:00,78.0,74.5,29.77,North,360,6.0,13.0,89,0.00,,,0.00,Wunderground v.1.15,2013-08-13 09:15:00,
2013-08-13 05:17:00,77.9,74.4,29.77,North,360,6.0,13.0,89,0.00,,,0.00,Wunderground v.1.15,2013-08-13 09:17:00,
2013-08-13 05:19:00,77.9,74.7,29.77,North,360,6.0,6.0,90,0.00,,,0.00,Wunderground v.1.15,2013-08-13 09:19:00,
2013-08-13 05:23:00,77.8,74.6,29.77,North,360,8.0,8.0,90,0.00,,,0.00,Wunderground v.1.15,2013-08-13 09:23:00,
2013-08-13 05:26:00,77.8,74.6,29.78,North,360,8.0,8.0,90,0.00,,,0.00,Wunderground v.1.15,2013-08-13 09:26:00,
2013-08-13 05:28:00,77.8,74.6,29.77,North,360,7.0,8.0,90,0.00,,,0.00,Wunderground v.1.15,2013-08-13 09:28:00,
2013-08-13 05:29:00,77.8,74.6,29.77,North,360,7.0,10.0,90,0.00,,,0.00,Wunderground v.1.15,2013-08-13 09:29:00,
2013-08-13 05:31:00,77.8,74.6,29.77,North,360,6.0,10.0,90,0.00,,,0.00,Wunderground v.1.15,2013-08-13 09:31:00,
2013-08-13 05:37:00,77.9,74.7,29.77,North,360,5.0,10.0,90,0.00,,,0.00,Wunderground v.1.15,2013-08-13 09:37:00,
2013-08-13 05:39:00,77.9,74.7,29.77,North,360,5.0,7.0,90,0.00,,,0.00,Wunderground v.1.15,2013-08-13 09:39:00,
2013-08-13 05:41:00,77.9,74.7,29.77,North,360,5.0,11.0,90,0.00,,,0.00,Wunderground v.1.15,2013-08-13 09:41:00,
2013-08-13 05:43:00,77.9,74.7,29.77,North,360,6.0,12.0,90,0.00,,,0.00,Wunderground v.1.15,2013-08-13 09:43:00,
2013-08-13 05:47:00,78.0,74.8,29.77,North,360,7.0,12.0,90,0.00,,,0.00,Wunderground v.1.15,2013-08-13 09:47:00,
2013-08-13 05:49:00,78.0,74.8,29.77,North,360,7.0,8.0,90,0.00,,,0.00,Wunderground v.1.15,2013-08-13 09:49:00,
2013-08-13 05:54:00,78.0,74.8,29.77,North,360,6.0,8.0,90,0.00,,,0.00,Wunderground v.1.15,2013-08-13 09:54:00,
2013-08-13 05:55:00,78.0,74.8,29.77,North,360,6.0,8.0,90,0.00,,,0.00,Wunderground v.1.15,2013-08-13 09:55:00,
2013-08-13 05:58:00,78.0,74.5,29.77,North,360,7.0,11.0,89,0.00,,,0.00,Wunderground v.1.15,2013-08-13 09:58:00,
2013-08-13 06:01:00,78.0,74.5,29.77,North,360,6.0,7.0,89,0.00,,,0.00,Wunderground v.1.15,2013-08-13 10:01:00,
2013-08-13 06:04:00,78.0,74.5,29.77,North,360,7.0,11.0,89,0.00,,,0.00,Wunderground v.1.15,2013-08-13 10:04:00,
2013-08-13 06:05:00,78.0,74.5,29.77,North,360,6.0,11.0,89,0.00,,,0.00,Wunderground v.1.15,2013-08-13 10:05:00,
2013-08-13 06:09:00,78.1,74.6,29.77,North,360,5.0,5.0,89,0.00,,,0.00,Wunderground v.1.15,2013-08-13 10:09:00,
2013-08-13 06:12:00,78.1,74.3,29.77,North,360,5.0,8.0,88,0.00,,,0.00,Wunderground v.1.15,2013-08-13 10:12:00,
2013-08-13 06:14:00,78.1,74.3,29.77,North,360,5.0,8.0,88,0.00,,,0.00,Wunderground v.1.15,2013-08-13 10:14:00,
2013-08-13 06:15:00,78.0,74.2,29.76,North,360,5.0,8.0,88,0.00,,,0.00,Wunderground v.1.15,2013-08-13 10:15:00,
2013-08-13 06:21:00,78.1,74.3,29.76,North,360,5.0,6.0,88,0.00,,,0.00,Wunderground v.1.15,2013-08-13 10:21:00,
2013-08-13 06:23:00,78.1,74.3,29.76,North,360,5.0,6.0,88,0.00,,,0.00,Wunderground v.1.15,2013-08-13 10:23:00,
2013-08-13 06:25:00,78.2,74.4,29.76,North,360,6.0,6.0,88,0.00,,,0.00,Wunderground v.1.15,2013-08-13 10:25:00,
2013-08-13 06:31:00,78.3,74.5,29.76,North,360,5.0,6.0,88,0.00,,,0.00,Wunderground v.1.15,2013-08-13 10:31:00,
2013-08-13 06:34:00,78.3,74.1,29.76,North,360,5.0,6.0,87,0.00,,,0.00,Wunderground v.1.15,2013-08-13 10:34:00,
2013-08-13 06:37:00,78.3,74.1,29.76,North,360,5.0,6.0,87,0.00,,,0.00,Wunderground v.1.15,2013-08-13 10:37:00,
2013-08-13 06:39:00,78.3,74.1,29.76,North,360,5.0,6.0,87,0.00,,,0.00,Wunderground v.1.15,2013-08-13 10:39:00,
2013-08-13 06:41:00,78.3,74.1,29.76,North,360,6.0,6.0,87,0.00,,,0.00,Wunderground v.1.15,2013-08-13 10:41:00,
2013-08-13 06:45:00,78.3,74.1,29.76,North,360,6.0,6.0,87,0.00,,,0.00,Wunderground v.1.15,2013-08-13 10:45:00,
2013-08-13 06:50:00,78.2,73.7,29.76,North,360,6.0,11.0,86,0.00,,,0.00,Wunderground v.1.15,2013-08-13 10:50:00,
2013-08-13 06:51:00,78.2,73.7,29.76,North,360,5.0,11.0,86,0.00,,,0.00,Wunderground v.1.15,2013-08-13 10:51:00,
2013-08-13 06:53:00,78.1,73.6,29.76,North,360,5.0,11.0,86,0.00,,,0.00,Wunderground v.1.15,2013-08-13 10:53:00,
2013-08-13 06:58:00,78.1,73.6,29.76,North,360,5.0,11.0,86,0.00,,,0.00,Wunderground v.1.15,2013-08-13 10:58:00,
2013-08-13 07:01:00,78.0,73.8,29.75,North,360,4.0,5.0,87,0.00,,,0.00,Wunderground v.1.15,2013-08-13 11:01:00,
2013-08-13 07:04:00,78.0,73.5,29.76,North,360,4.0,5.0,86,0.00,,,0.00,Wunderground v.1.15,2013-08-13 11:04:00,
2013-08-13 07:05:00,78.0,73.5,29.75,North,360,5.0,7.0,86,0.00,,,0.00,Wunderground v.1.15,2013-08-13 11:05:00,
2013-08-13 07:07:00,77.9,73.4,29.75,North,360,6.0,7.0,86,0.00,,,0.00,Wunderground v.1.15,2013-08-13 11:07:00,
2013-08-13 07:14:00,77.8,73.3,29.75,North,360,6.0,9.0,86,0.00,,,0.00,Wunderground v.1.15,2013-08-13 11:14:00,
2013-08-13 07:15:00,77.9,73.4,29.75,North,360,5.0,10.0,86,0.00,,,0.00,Wunderground v.1.15,2013-08-13 11:15:00,
2013-08-13 07:17:00,77.9,73.4,29.75,North,360,4.0,10.0,86,0.00,,,0.00,Wunderground v.1.15,2013-08-13 11:17:00,
2013-08-13 07:19:00,77.9,73.4,29.75,North,360,5.0,8.0,86,0.00,,,0.00,Wunderground v.1.15,2013-08-13 11:19:00,
2013-08-13 07:21:00,77.9,73.7,29.75,North,360,4.0,8.0,87,0.00,,,0.00,Wunderground v.1.15,2013-08-13 11:21:00,
2013-08-13 07:23:00,77.9,73.7,29.75,North,360,4.0,8.0,87,0.00,,,0.00,Wunderground v.1.15,2013-08-13 11:23:00,
2013-08-13 07:25:00,77.9,73.4,29.75,North,360,4.0,8.0,86,0.00,,,0.00,Wunderground v.1.15,2013-08-13 11:25:00,
2013-08-13 07:29:00,77.9,73.4,29.76,North,360,5.0,5.0,86,0.00,,,0.00,Wunderground v.1.15,2013-08-13 11:29:00,
2013-08-13 07:31:00,78.0,73.5,29.76,North,360,4.0,5.0,86,0.00,,,0.00,Wunderground v.1.15,2013-08-13 11:31:00,
2013-08-13 07:35:00,78.1,73.6,29.76,North,360,4.0,5.0,86,0.00,,,0.00,Wunderground v.1.15,2013-08-13 11:35:00,
2013-08-13 07:37:00,78.2,73.7,29.76,North,360,3.0,11.0,86,0.00,,,0.00,Wunderground v.1.15,2013-08-13 11:37:00,
2013-08-13 07:39:00,78.1,73.2,29.76,North,360,4.0,6.0,85,0.00,,,0.00,Wunderground v.1.15,2013-08-13 11:39:00,
2013-08-13 07:42:00,78.2,73.7,29.76,North,360,4.0,6.0,86,0.00,,,0.00,Wunderground v.1.15,2013-08-13 11:42:00,
2013-08-13 07:44:00,78.2,73.3,29.77,North,360,4.0,8.0,85,0.00,,,0.00,Wunderground v.1.15,2013-08-13 11:44:00,
2013-08-13 07:45:00,78.2,73.3,29.77,North,360,5.0,12.0,85,0.00,,,0.00,Wunderground v.1.15,2013-08-13 11:45:00,
2013-08-13 07:47:00,78.1,73.2,29.78,North,360,6.0,13.0,85,0.00,,,0.00,Wunderground v.1.15,2013-08-13 11:47:00,
2013-08-13 07:49:00,78.1,73.2,29.77,North,360,7.0,9.0,85,0.00,,,0.00,Wunderground v.1.15,2013-08-13 11:49:00,
2013-08-13 07:53:00,78.0,73.1,29.77,North,360,9.0,9.0,85,0.00,,,0.00,Wunderground v.1.15,2013-08-13 11:53:00,
2013-08-13 07:56:00,78.0,72.8,29.77,North,360,9.0,12.0,84,0.00,,,0.00,Wunderground v.1.15,2013-08-13 11:56:00,
2013-08-13 07:59:00,78.0,73.1,29.78,North,360,8.0,12.0,85,0.00,,,0.00,Wunderground v.1.15,2013-08-13 11:59:00,
2013-08-13 08:01:00,78.0,73.1,29.78,North,360,8.0,12.0,85,0.00,,,0.00,Wunderground v.1.15,2013-08-13 12:01:00,
2013-08-13 08:04:00,77.8,72.9,29.78,North,360,9.0,12.0,85,0.47,,,0.03,Wunderground v.1.15,2013-08-13 12:04:00,
2013-08-13 08:05:00,77.5,73.0,29.79,North,360,9.0,12.0,86,0.29,,,0.03,Wunderground v.1.15,2013-08-13 12:05:00,
2013-08-13 08:07:00,77.1,72.9,29.79,North,360,9.0,12.0,87,1.32,,,0.07,Wunderground v.1.15,2013-08-13 12:07:00,
2013-08-13 08:11:00,76.3,73.1,29.78,North,360,8.0,9.0,90,0.39,,,0.10,Wunderground v.1.15,2013-08-13 12:11:00,
2013-08-13 08:14:00,76.1,73.0,29.77,North,360,7.0,9.0,90,0.17,,,0.10,Wunderground v.1.15,2013-08-13 12:14:00,
2013-08-13 08:15:00,75.9,72.8,29.77,North,360,7.0,9.0,90,0.12,,,0.10,Wunderground v.1.15,2013-08-13 12:15:00,
2013-08-13 08:17:00,75.7,72.9,29.77,North,360,6.0,9.0,91,0.08,,,0.10,Wunderground v.1.15,2013-08-13 12:17:00,
2013-08-13 08:21:00,75.7,73.2,29.77,North,360,4.0,5.0,92,0.05,,,0.10,Wunderground v.1.15,2013-08-13 12:21:00,
2013-08-13 08:25:00,75.7,73.2,29.77,North,360,4.0,5.0,92,0.04,,,0.10,Wunderground v.1.15,2013-08-13 12:25:00,
2013-08-13 08:28:00,75.7,73.2,29.77,North,360,4.0,5.0,92,0.00,,,0.10,Wunderground v.1.15,2013-08-13 12:28:00,
2013-08-13 08:34:00,75.8,73.3,29.78,North,360,4.0,10.0,92,0.00,,,0.10,Wunderground v.1.15,2013-08-13 12:34:00,
2013-08-13 08:35:00,75.8,73.3,29.77,North,360,5.0,10.0,92,0.00,,,0.10,Wunderground v.1.15,2013-08-13 12:35:00,
2013-08-13 08:42:00,76.0,73.2,29.77,North,360,7.0,7.0,91,0.00,,,0.10,Wunderground v.1.15,2013-08-13 12:42:00,
2013-08-13 08:44:00,76.2,73.7,29.78,North,360,6.0,9.0,92,0.00,,,0.10,Wunderground v.1.15,2013-08-13 12:44:00,
2013-08-13 08:47:00,76.2,73.4,29.78,North,360,6.0,13.0,91,0.00,,,0.10,Wunderground v.1.15,2013-08-13 12:47:00,
2013-08-13 08:49:00,76.2,73.1,29.78,North,360,7.0,10.0,90,0.00,,,0.10,Wunderground v.1.15,2013-08-13 12:49:00,
2013-08-13 08:53:00,76.3,73.1,29.78,North,360,9.0,13.0,90,0.00,,,0.10,Wunderground v.1.15,2013-08-13 12:53:00,
2013-08-13 08:56:00,76.3,73.1,29.78,North,360,10.0,14.0,90,0.00,,,0.10,Wunderground v.1.15,2013-08-13 12:56:00,
2013-08-13 08:59:00,76.3,73.1,29.78,North,360,11.0,11.0,90,0.00,,,0.10,Wunderground v.1.15,2013-08-13 12:59:00,
2013-08-13 09:05:00,76.2,72.7,29.78,North,360,11.0,14.0,89,0.00,,,0.10,Wunderground v.1.15,2013-08-13 13:05:00,
2013-08-13 09:07:00,76.2,72.7,29.78,North,360,11.0,19.0,89,0.00,,,0.10,Wunderground v.1.15,2013-08-13 13:07:00,
2013-08-13 09:12:00,76.0,72.5,29.77,North,360,12.0,13.0,89,0.00,,,0.10,Wunderground v.1.15,2013-08-13 13:12:00,
2013-08-13 09:13:00,76.2,73.1,29.76,North,360,11.0,13.0,90,0.00,,,0.10,Wunderground v.1.15,2013-08-13 13:13:00,
2013-08-13 09:17:00,76.1,72.6,29.76,North,360,10.0,13.0,89,0.00,,,0.10,Wunderground v.1.15,2013-08-13 13:17:00,
2013-08-13 09:19:00,76.1,73.0,29.76,North,360,8.0,8.0,90,0.00,,,0.10,Wunderground v.1.15,2013-08-13 13:19:00,
2013-08-13 09:21:00,76.2,73.1,29.76,North,360,6.0,8.0,90,0.00,,,0.10,Wunderground v.1.15,2013-08-13 13:21:00,
2013-08-13 09:26:00,76.4,72.9,29.76,North,360,5.0,8.0,89,0.00,,,0.10,Wunderground v.1.15,2013-08-13 13:26:00,
2013-08-13 09:27:00,76.4,73.2,29.76,North,360,4.0,8.0,90,0.00,,,0.10,Wunderground v.1.15,2013-08-13 13:27:00,
2013-08-13 09:29:00,76.5,73.0,29.76,North,360,5.0,12.0,89,0.00,,,0.10,Wunderground v.1.15,2013-08-13 13:29:00,
2013-08-13 09:31:00,76.4,72.6,29.76,North,360,6.0,12.0,88,0.00,,,0.10,Wunderground v.1.15,2013-08-13 13:31:00,
2013-08-13 09:34:00,76.4,72.6,29.76,North,360,7.0,12.0,88,0.00,,,0.10,Wunderground v.1.15,2013-08-13 13:34:00,
2013-08-13 09:35:00,76.4,72.9,29.76,North,360,8.0,12.0,89,0.00,,,0.10,Wunderground v.1.15,2013-08-13 13:35:00,
2013-08-13 09:42:00,76.2,72.0,29.77,North,360,9.0,12.0,87,0.00,,,0.10,Wunderground v.1.15,2013-08-13 13:42:00,
2013-08-13 09:45:00,76.0,71.2,29.77,North,360,10.0,16.0,85,0.00,,,0.10,Wunderground v.1.15,2013-08-13 13:45:00,
2013-08-13 09:47:00,75.9,71.1,29.77,North,360,12.0,16.0,85,0.00,,,0.10,Wunderground v.1.15,2013-08-13 13:47:00,
2013-08-13 09:49:00,75.9,71.4,29.77,North,360,11.0,11.0,86,0.00,,,0.10,Wunderground v.1.15,2013-08-13 13:49:00,
2013-08-13 09:51:00,76.0,71.5,29.77,North,360,10.0,14.0,86,0.00,,,0.10,Wunderground v.1.15,2013-08-13 13:51:00,
2013-08-13 09:54:00,75.8,71.0,29.77,North,360,10.0,14.0,85,0.00,,,0.10,Wunderground v.1.15,2013-08-13 13:54:00,
2013-08-13 09:57:00,75.4,70.2,29.78,North,360,10.0,14.0,84,0.00,,,0.10,Wunderground v.1.15,2013-08-13 13:57:00,
2013-08-13 09:59:00,75.3,70.5,29.78,North,360,11.0,13.0,85,0.00,,,0.10,Wunderground v.1.15,2013-08-13 13:59:00,
2013-08-13 10:01:00,75.2,70.0,29.78,North,360,12.0,19.0,84,0.00,,,0.10,Wunderground v.1.15,2013-08-13 14:01:00,
2013-08-13 10:04:00,75.0,70.2,29.78,North,360,13.0,19.0,85,0.00,,,0.10,Wunderground v.1.15,2013-08-13 14:04:00,
2013-08-13 10:05:00,75.1,70.3,29.78,North,360,13.0,19.0,85,0.00,,,0.10,Wunderground v.1.15,2013-08-13 14:05:00,
2013-08-13 10:07:00,75.0,70.2,29.78,North,360,12.0,19.0,85,0.00,,,0.10,Wunderground v.1.15,2013-08-13 14:07:00,
2013-08-13 10:09:00,74.9,70.4,29.78,North,360,13.0,13.0,86,0.00,,,0.10,Wunderground v.1.15,2013-08-13 14:09:00,
2013-08-13 10:12:00,74.9,70.4,29.78,North,360,12.0,13.0,86,0.00,,,0.10,Wunderground v.1.15,2013-08-13 14:12:00,
2013-08-13 10:14:00,75.0,70.5,29.78,North,360,10.0,13.0,86,0.00,,,0.10,Wunderground v.1.15,2013-08-13 14:14:00,
2013-08-13 10:15:00,75.0,70.5,29.78,North,360,10.0,13.0,86,0.00,,,0.10,Wunderground v.1.15,2013-08-13 14:15:00,
2013-08-13 10:19:00,75.0,70.2,29.78,North,360,9.0,10.0,85,0.00,,,0.10,Wunderground v.1.15,2013-08-13 14:19:00,
2013-08-13 10:21:00,75.1,70.6,29.78,North,360,8.0,10.0,86,0.00,,,0.10,Wunderground v.1.15,2013-08-13 14:21:00,
2013-08-13 10:24:00,75.2,70.4,29.78,North,360,9.0,10.0,85,0.00,,,0.10,Wunderground v.1.15,2013-08-13 14:24:00,
2013-08-13 10:26:00,75.2,70.4,29.78,North,360,9.0,10.0,85,0.00,,,0.10,Wunderground v.1.15,2013-08-13 14:26:00,
2013-08-13 10:28:00,75.2,70.4,29.78,North,360,8.0,10.0,85,0.00,,,0.10,Wunderground v.1.15,2013-08-13 14:28:00,
2013-08-13 10:31:00,75.2,70.0,29.78,North,360,8.0,10.0,84,0.00,,,0.10,Wunderground v.1.15,2013-08-13 14:31:00,
2013-08-13 10:35:00,75.2,69.7,29.78,North,360,9.0,12.0,83,0.00,,,0.10,Wunderground v.1.15,2013-08-13 14:35:00,
2013-08-13 10:37:00,75.2,69.7,29.78,North,360,9.0,12.0,83,0.00,,,0.10,Wunderground v.1.15,2013-08-13 14:37:00,
2013-08-13 10:42:00,75.3,69.8,29.79,North,360,8.0,9.0,83,0.00,,,0.10,Wunderground v.1.15,2013-08-13 14:42:00,
2013-08-13 10:43:00,75.4,69.9,29.79,North,360,8.0,9.0,83,0.00,,,0.10,Wunderground v.1.15,2013-08-13 14:43:00,
2013-08-13 10:47:00,75.5,69.6,29.79,North,360,7.0,16.0,82,0.00,,,0.10,Wunderground v.1.15,2013-08-13 14:47:00,
2013-08-13 10:50:00,75.3,69.4,29.79,North,360,8.0,8.0,82,0.00,,,0.10,Wunderground v.1.15,2013-08-13 14:50:00,
2013-08-13 10:54:00,75.4,69.9,29.79,North,360,9.0,11.0,83,0.00,,,0.10,Wunderground v.1.15,2013-08-13 14:54:00,
2013-08-13 10:55:00,75.4,69.5,29.79,North,360,10.0,12.0,82,0.00,,,0.10,Wunderground v.1.15,2013-08-13 14:55:00,
2013-08-13 10:57:00,75.4,69.5,29.79,North,360,10.0,12.0,82,0.00,,,0.10,Wunderground v.1.15,2013-08-13 14:57:00,
2013-08-13 10:59:00,75.5,70.0,29.79,North,360,9.0,9.0,83,0.00,,,0.10,Wunderground v.1.15,2013-08-13 14:59:00,
2013-08-13 11:01:00,75.6,69.7,29.79,North,360,9.0,9.0,82,0.00,,,0.10,Wunderground v.1.15,2013-08-13 15:01:00,
2013-08-13 11:04:00,75.8,69.9,29.79,North,360,9.0,9.0,82,0.00,,,0.10,Wunderground v.1.15,2013-08-13 15:04:00,
2013-08-13 11:05:00,76.0,69.7,29.79,North,360,8.0,9.0,81,0.00,,,0.10,Wunderground v.1.15,2013-08-13 15:05:00,
2013-08-13 11:07:00,76.1,70.2,29.79,North,360,7.0,9.0,82,0.00,,,0.10,Wunderground v.1.15,2013-08-13 15:07:00,
2013-08-13 11:12:00,75.8,69.6,29.79,North,360,8.0,11.0,81,0.00,,,0.10,Wunderground v.1.15,2013-08-13 15:12:00,
2013-08-13 11:14:00,75.8,69.2,29.79,North,360,8.0,11.0,80,0.00,,,0.10,Wunderground v.1.15,2013-08-13 15:14:00,
2013-08-13 11:15:00,75.8,69.2,29.79,North,360,7.0,11.0,80,0.00,,,0.10,Wunderground v.1.15,2013-08-13 15:15:00,
2013-08-13 11:17:00,75.8,69.6,29.79,North,360,7.0,11.0,81,0.00,,,0.10,Wunderground v.1.15,2013-08-13 15:17:00,
2013-08-13 11:21:00,76.1,69.5,29.80,North,360,7.0,10.0,80,0.00,,,0.10,Wunderground v.1.15,2013-08-13 15:21:00,
2013-08-13 11:25:00,76.6,69.6,29.80,North,360,6.0,10.0,79,0.00,,,0.10,Wunderground v.1.15,2013-08-13 15:25:00,
2013-08-13 11:27:00,76.7,69.7,29.80,North,360,6.0,10.0,79,0.00,,,0.10,Wunderground v.1.15,2013-08-13 15:27:00,
2013-08-13 11:34:00,76.9,69.9,29.80,North,360,5.0,9.0,79,0.00,,,0.10,Wunderground v.1.15,2013-08-13 15:34:00,
2013-08-13 11:35:00,76.7,69.3,29.79,North,360,5.0,9.0,78,0.00,,,0.10,Wunderground v.1.15,2013-08-13 15:35:00,
2013-08-13 11:39:00,76.4,69.4,29.79,North,360,6.0,6.0,79,0.00,,,0.10,Wunderground v.1.15,2013-08-13 15:39:00,
2013-08-13 11:42:00,76.3,68.9,29.79,North,360,7.0,11.0,78,0.00,,,0.10,Wunderground v.1.15,2013-08-13 15:42:00,
2013-08-13 11:43:00,76.2,68.8,29.79,North,360,7.0,11.0,78,0.00,,,0.10,Wunderground v.1.15,2013-08-13 15:43:00,
2013-08-13 11:47:00,76.3,68.6,29.80,North,360,8.0,11.0,77,0.00,,,0.10,Wunderground v.1.15,2013-08-13 15:47:00,
2013-08-13 11:49:00,76.6,68.8,29.79,North,360,7.0,7.0,77,0.00,,,0.10,Wunderground v.1.15,2013-08-13 15:49:00,
2013-08-13 11:51:00,76.7,68.9,29.79,North,360,7.0,10.0,77,0.00,,,0.10,Wunderground v.1.15,2013-08-13 15:51:00,
2013-08-13 11:53:00,76.7,69.3,29.79,North,360,6.0,10.0,78,0.00,,,0.10,Wunderground v.1.15,2013-08-13 15:53:00,
2013-08-13 11:58:00,76.5,69.5,29.79,North,360,6.0,10.0,79,0.00,,,0.10,Wunderground v.1.15,2013-08-13 15:58:00,
2013-08-13 11:59:00,76.5,69.5,29.79,North,360,7.0,12.0,79,0.00,,,0.10,Wunderground v.1.15,2013-08-13 15:59:00,
2013-08-13 12:04:00,76.3,68.9,29.79,North,360,8.0,12.0,78,0.00,,,0.10,Wunderground v.1.15,2013-08-13 16:04:00,
2013-08-13 12:07:00,76.2,68.1,29.79,North,360,9.0,12.0,76,0.00,,,0.10,Wunderground v.1.15,2013-08-13 16:07:00,
2013-08-13 12:10:00,76.4,68.3,29.79,North,360,9.0,9.0,76,0.00,,,0.10,Wunderground v.1.15,2013-08-13 16:10:00,
2013-08-13 12:13:00,76.7,68.2,29.79,North,360,9.0,13.0,75,0.00,,,0.10,Wunderground v.1.15,2013-08-13 16:13:00,
2013-08-13 12:15:00,76.7,67.8,29.79,North,360,9.0,13.0,74,0.00,,,0.10,Wunderground v.1.15,2013-08-13 16:15:00,
2013-08-13 12:19:00,77.0,67.7,29.79,North,360,9.0,13.0,73,0.00,,,0.10,Wunderground v.1.15,2013-08-13 16:19:00,
2013-08-13 12:21:00,77.1,68.2,29.79,North,360,8.0,13.0,74,0.00,,,0.10,Wunderground v.1.15,2013-08-13 16:21:00,
2013-08-13 12:24:00,77.3,68.0,29.79,North,360,8.0,13.0,73,0.00,,,0.10,Wunderground v.1.15,2013-08-13 16:24:00,
2013-08-13 12:25:00,77.4,68.1,29.78,North,360,8.0,13.0,73,0.00,,,0.10,Wunderground v.1.15,2013-08-13 16:25:00,
2013-08-13 12:27:00,77.3,68.0,29.78,North,360,8.0,13.0,73,0.00,,,0.10,Wunderground v.1.15,2013-08-13 16:27:00,
2013-08-13 12:29:00,77.2,68.3,29.78,North,360,7.0,7.0,74,0.00,,,0.10,Wunderground v.1.15,2013-08-13 16:29:00,
2013-08-13 12:32:00,77.1,68.2,29.78,North,360,7.0,10.0,74,0.00,,,0.10,Wunderground v.1.15,2013-08-13 16:32:00,
2013-08-13 12:33:00,77.0,68.1,29.78,North,360,7.0,10.0,74,0.00,,,0.10,Wunderground v.1.15,2013-08-13 16:33:00,
2013-08-13 12:35:00,76.9,68.4,29.78,North,360,7.0,10.0,75,0.00,,,0.10,Wunderground v.1.15,2013-08-13 16:35:00,
2013-08-13 12:41:00,77.1,68.2,29.78,North,360,5.0,10.0,74,0.00,,,0.10,Wunderground v.1.15,2013-08-13 16:41:00,
2013-08-13 12:43:00,77.0,68.5,29.78,North,360,5.0,10.0,75,0.00,,,0.10,Wunderground v.1.15,2013-08-13 16:43:00,
2013-08-13 12:45:00,76.9,68.0,29.78,North,360,6.0,10.0,74,0.00,,,0.10,Wunderground v.1.15,2013-08-13 16:45:00,
2013-08-13 12:47:00,76.8,68.7,29.79,North,360,6.0,10.0,76,0.00,,,0.10,Wunderground v.1.15,2013-08-13 16:47:00,
2013-08-13 12:49:00,76.9,68.8,29.78,North,360,6.0,6.0,76,0.00,,,0.10,Wunderground v.1.15,2013-08-13 16:49:00,
2013-08-13 12:51:00,76.9,68.8,29.78,North,360,6.0,6.0,76,0.00,,,0.10,Wunderground v.1.15,2013-08-13 16:51:00,
2013-08-13 12:55:00,76.8,68.7,29.78,North,360,5.0,6.0,76,0.00,,,0.10,Wunderground v.1.15,2013-08-13 16:55:00,
2013-08-13 12:57:00,76.8,68.7,29.78,North,360,6.0,6.0,76,0.00,,,0.10,Wunderground v.1.15,2013-08-13 16:57:00,
2013-08-13 13:03:00,76.9,68.8,29.77,North,360,5.0,7.0,76,0.00,,,0.10,Wunderground v.1.15,2013-08-13 17:03:00,
2013-08-13 13:05:00,77.1,68.9,29.78,North,360,5.0,7.0,76,0.00,,,0.10,Wunderground v.1.15,2013-08-13 17:05:00,
2013-08-13 13:14:00,76.9,68.8,29.78,North,360,7.0,9.0,76,0.00,,,0.10,Wunderground v.1.15,2013-08-13 17:14:00,
2013-08-13 13:15:00,76.9,68.8,29.78,North,360,8.0,9.0,76,0.00,,,0.10,Wunderground v.1.15,2013-08-13 17:15:00,
2013-08-13 13:17:00,77.1,68.9,29.77,North,360,7.0,9.0,76,0.00,,,0.10,Wunderground v.1.15,2013-08-13 17:17:00,
2013-08-13 13:19:00,77.4,69.2,29.77,North,360,6.0,11.0,76,0.00,,,0.10,Wunderground v.1.15,2013-08-13 17:19:00,
2013-08-13 13:24:00,77.9,69.3,29.77,North,360,6.0,11.0,75,0.00,,,0.10,Wunderground v.1.15,2013-08-13 17:24:00,
2013-08-13 13:25:00,78.2,69.2,29.77,North,360,5.0,11.0,74,0.00,,,0.10,Wunderground v.1.15,2013-08-13 17:25:00,
2013-08-13 13:27:00,78.6,69.2,29.77,North,360,6.0,13.0,73,0.00,,,0.10,Wunderground v.1.15,2013-08-13 17:27:00,
2013-08-13 13:29:00,78.8,69.0,29.77,North,360,6.0,13.0,72,0.00,,,0.10,Wunderground v.1.15,2013-08-13 17:29:00,
2013-08-13 13:32:00,79.0,68.8,29.77,North,360,6.0,13.0,71,0.00,,,0.10,Wunderground v.1.15,2013-08-13 17:32:00,
2013-08-13 13:33:00,79.3,69.1,29.77,North,360,6.0,13.0,71,0.00,,,0.10,Wunderground v.1.15,2013-08-13 17:33:00,
2013-08-13 13:35:00,79.5,69.3,29.77,North,360,6.0,13.0,71,0.00,,,0.10,Wunderground v.1.15,2013-08-13 17:35:00,
2013-08-13 13:39:00,79.1,69.3,29.77,North,360,7.0,13.0,72,0.00,,,0.10,Wunderground v.1.15,2013-08-13 17:39:00,
2013-08-13 13:41:00,79.0,69.2,29.77,North,360,7.0,13.0,72,0.00,,,0.10,Wunderground v.1.15,2013-08-13 17:41:00,
2013-08-13 13:44:00,78.9,69.1,29.77,North,360,7.0,13.0,72,0.00,,,0.10,Wunderground v.1.15,2013-08-13 17:44:00,
2013-08-13 13:49:00,79.1,69.3,29.77,North,360,7.0,7.0,72,0.00,,,0.10,Wunderground v.1.15,2013-08-13 17:49:00,
2013-08-13 13:52:00,79.4,69.6,29.77,North,360,7.0,7.0,72,0.00,,,0.10,Wunderground v.1.15,2013-08-13 17:52:00,
2013-08-13 13:57:00,79.9,69.7,29.76,North,360,6.0,13.0,71,0.00,,,0.10,Wunderground v.1.15,2013-08-13 17:57:00,
2013-08-13 13:59:00,80.1,69.4,29.76,North,360,5.0,5.0,70,0.00,,,0.10,Wunderground v.1.15,2013-08-13 17:59:00,
2013-08-13 14:03:00,80.3,69.2,29.76,North,360,6.0,11.0,69,0.00,,,0.10,Wunderground v.1.15,2013-08-13 18:03:00,
2013-08-13 14:05:00,80.5,69.8,29.76,North,360,6.0,11.0,70,0.00,,,0.10,Wunderground v.1.15,2013-08-13 18:05:00,
2013-08-13 14:09:00,80.3,69.6,29.76,North,360,7.0,12.0,70,0.00,,,0.10,Wunderground v.1.15,2013-08-13 18:09:00,
2013-08-13 14:11:00,80.4,69.7,29.76,North,360,7.0,12.0,70,0.00,,,0.10,Wunderground v.1.15,2013-08-13 18:11:00,
2013-08-13 14:14:00,80.7,69.6,29.76,North,360,7.0,12.0,69,0.00,,,0.10,Wunderground v.1.15,2013-08-13 18:14:00,
2013-08-13 14:15:00,80.9,69.8,29.76,North,360,6.0,12.0,69,0.00,,,0.10,Wunderground v.1.15,2013-08-13 18:15:00,
2013-08-13 14:17:00,80.9,69.8,29.75,North,360,6.0,12.0,69,0.00,,,0.10,Wunderground v.1.15,2013-08-13 18:17:00,
2013-08-13 14:19:00,81.0,69.9,29.75,North,360,6.0,6.0,69,0.00,,,0.10,Wunderground v.1.15,2013-08-13 18:19:00,
2013-08-13 14:25:00,81.0,69.9,29.76,North,360,7.0,7.0,69,0.00,,,0.10,Wunderground v.1.15,2013-08-13 18:25:00,
2013-08-13 14:27:00,81.3,69.7,29.76,North,360,7.0,7.0,68,0.00,,,0.10,Wunderground v.1.15,2013-08-13 18:27:00,
2013-08-13 14:30:00,81.6,70.0,29.76,North,360,7.0,7.0,68,0.00,,,0.10,Wunderground v.1.15,2013-08-13 18:30:00,
2013-08-13 14:31:00,81.7,70.1,29.76,North,360,6.0,7.0,68,0.00,,,0.10,Wunderground v.1.15,2013-08-13 18:31:00,
2013-08-13 14:33:00,81.8,70.2,29.76,North,360,6.0,7.0,68,0.00,,,0.10,Wunderground v.1.15,2013-08-13 18:33:00,
2013-08-13 14:39:00,81.8,70.2,29.76,North,360,6.0,7.0,68,0.00,,,0.10,Wunderground v.1.15,2013-08-13 18:39:00,
2013-08-13 14:44:00,81.8,69.8,29.75,North,360,8.0,9.0,67,0.00,,,0.10,Wunderground v.1.15,2013-08-13 18:44:00,
2013-08-13 14:45:00,81.9,70.3,29.75,North,360,8.0,9.0,68,0.00,,,0.10,Wunderground v.1.15,2013-08-13 18:45:00,
2013-08-13 14:49:00,82.1,70.1,29.75,North,360,8.0,11.0,67,0.00,,,0.10,Wunderground v.1.15,2013-08-13 18:49:00,
2013-08-13 14:51:00,82.1,70.1,29.75,North,360,7.0,11.0,67,0.00,,,0.10,Wunderground v.1.15,2013-08-13 18:51:00,
2013-08-13 14:53:00,82.2,69.7,29.75,North,360,8.0,11.0,66,0.00,,,0.10,Wunderground v.1.15,2013-08-13 18:53:00,
2013-08-13 14:59:00,82.4,70.3,29.75,North,360,7.0,9.0,67,0.00,,,0.10,Wunderground v.1.15,2013-08-13 18:59:00,
2013-08-13 15:01:00,82.3,69.8,29.75,North,360,8.0,9.0,66,0.00,,,0.10,Wunderground v.1.15,2013-08-13 19:01:00,
2013-08-13 15:05:00,82.3,70.2,29.75,North,360,8.0,9.0,67,0.00,,,0.10,Wunderground v.1.15,2013-08-13 19:05:00,
2013-08-13 15:07:00,82.5,70.4,29.75,North,360,8.0,9.0,67,0.00,,,0.10,Wunderground v.1.15,2013-08-13 19:07:00,
2013-08-13 15:11:00,83.2,70.7,29.75,North,360,8.0,13.0,66,0.00,,,0.10,Wunderground v.1.15,2013-08-13 19:11:00,
2013-08-13 15:14:00,83.6,70.6,29.75,North,360,8.0,13.0,65,0.00,,,0.10,Wunderground v.1.15,2013-08-13 19:14:00,
2013-08-13 15:17:00,83.6,70.6,29.75,North,360,9.0,13.0,65,0.00,,,0.10,Wunderground v.1.15,2013-08-13 19:17:00,
2013-08-13 15:22:00,83.8,70.3,29.75,North,360,8.0,12.0,64,0.00,,,0.10,Wunderground v.1.15,2013-08-13 19:22:00,
2013-08-13 15:25:00,83.6,70.1,29.75,North,360,9.0,15.0,64,0.00,,,0.10,Wunderground v.1.15,2013-08-13 19:25:00,
2013-08-13 15:27:00,83.4,70.4,29.74,North,360,9.0,15.0,65,0.00,,,0.10,Wunderground v.1.15,2013-08-13 19:27:00,
2013-08-13 15:29:00,83.4,70.4,29.74,North,360,9.0,12.0,65,0.00,,,0.10,Wunderground v.1.15,2013-08-13 19:29:00,
2013-08-13 15:31:00,83.3,70.3,29.74,North,360,9.0,12.0,65,0.00,,,0.10,Wunderground v.1.15,2013-08-13 19:31:00,
2013-08-13 15:33:00,83.2,70.7,29.74,North,360,9.0,12.0,66,0.00,,,0.10,Wunderground v.1.15,2013-08-13 19:33:00,
2013-08-13 15:36:00,83.4,70.8,29.74,North,360,8.0,12.0,66,0.00,,,0.10,Wunderground v.1.15,2013-08-13 19:36:00,
2013-08-13 15:38:00,83.7,70.7,29.74,North,360,8.0,12.0,65,0.00,,,0.10,Wunderground v.1.15,2013-08-13 19:38:00,
2013-08-13 15:39:00,84.1,71.1,29.74,North,360,8.0,8.0,65,0.00,,,0.10,Wunderground v.1.15,2013-08-13 19:39:00,
2013-08-13 15:44:00,84.0,70.5,29.74,North,360,7.0,9.0,64,0.00,,,0.10,Wunderground v.1.15,2013-08-13 19:44:00,
2013-08-13 15:45:00,83.9,70.4,29.74,North,360,7.0,10.0,64,0.00,,,0.10,Wunderground v.1.15,2013-08-13 19:45:00,
2013-08-13 15:49:00,84.1,71.1,29.74,North,360,7.0,10.0,65,0.00,,,0.10,Wunderground v.1.15,2013-08-13 19:49:00,
2013-08-13 15:52:00,84.0,70.5,29.74,North,360,8.0,10.0,64,0.00,,,0.10,Wunderground v.1.15,2013-08-13 19:52:00,
2013-08-13 15:57:00,83.5,70.5,29.74,North,360,8.0,10.0,65,0.00,,,0.10,Wunderground v.1.15,2013-08-13 19:57:00,
2013-08-13 16:00:00,83.7,70.7,29.74,North,360,9.0,10.0,65,0.00,,,0.10,Wunderground v.1.15,2013-08-13 20:00:00,
2013-08-13 16:03:00,83.8,70.8,29.74,North,360,8.0,13.0,65,0.00,,,0.10,Wunderground v.1.15,2013-08-13 20:03:00,
2013-08-13 16:05:00,83.7,70.2,29.74,North,360,9.0,13.0,64,0.00,,,0.10,Wunderground v.1.15,2013-08-13 20:05:00,
2013-08-13 16:07:00,83.7,70.2,29.74,North,360,9.0,13.0,64,0.00,,,0.10,Wunderground v.1.15,2013-08-13 20:07:00,
2013-08-13 16:09:00,83.8,70.3,29.74,North,360,9.0,9.0,64,0.00,,,0.10,Wunderground v.1.15,2013-08-13 20:09:00,
2013-08-13 16:11:00,83.9,70.4,29.74,North,360,10.0,11.0,64,0.00,,,0.10,Wunderground v.1.15,2013-08-13 20:11:00,
2013-08-13 16:15:00,83.9,69.5,29.74,North,360,9.0,11.0,62,0.00,,,0.10,Wunderground v.1.15,2013-08-13 20:15:00,
2013-08-13 16:17:00,84.0,70.0,29.73,North,360,9.0,12.0,63,0.00,,,0.10,Wunderground v.1.15,2013-08-13 20:17:00,
2013-08-13 16:19:00,84.0,70.0,29.73,North,360,9.0,9.0,63,0.00,,,0.10,Wunderground v.1.15,2013-08-13 20:19:00,
2013-08-13 16:21:00,83.9,69.5,29.73,North,360,9.0,14.0,62,0.00,,,0.10,Wunderground v.1.15,2013-08-13 20:21:00,
2013-08-13 16:24:00,84.0,70.0,29.73,North,360,9.0,14.0,63,0.00,,,0.10,Wunderground v.1.15,2013-08-13 20:24:00,
2013-08-13 16:27:00,84.0,69.6,29.73,North,360,10.0,14.0,62,0.00,,,0.10,Wunderground v.1.15,2013-08-13 20:27:00,
2013-08-13 16:29:00,83.9,70.0,29.73,North,360,10.0,10.0,63,0.00,,,0.10,Wunderground v.1.15,2013-08-13 20:29:00,
2013-08-13 16:33:00,84.1,69.7,29.73,North,360,10.0,12.0,62,0.00,,,0.10,Wunderground v.1.15,2013-08-13 20:33:00,
2013-08-13 16:35:00,84.3,69.9,29.73,North,360,10.0,12.0,62,0.00,,,0.10,Wunderground v.1.15,2013-08-13 20:35:00,
2013-08-13 16:38:00,84.1,69.7,29.73,North,360,9.0,12.0,62,0.00,,,0.10,Wunderground v.1.15,2013-08-13 20:38:00,
2013-08-13 16:39:00,84.0,69.6,29.73,North,360,9.0,9.0,62,0.00,,,0.10,Wunderground v.1.15,2013-08-13 20:39:00,
2013-08-13 16:46:00,84.5,70.0,29.73,North,360,7.0,11.0,62,0.00,,,0.10,Wunderground v.1.15,2013-08-13 20:46:00,
2013-08-13 16:47:00,84.5,70.5,29.73,North,360,6.0,11.0,63,0.00,,,0.10,Wunderground v.1.15,2013-08-13 20:47:00,
2013-08-13 16:49:00,84.5,70.0,29.73,North,360,7.0,7.0,62,0.00,,,0.10,Wunderground v.1.15,2013-08-13 20:49:00,
2013-08-13 16:54:00,84.2,70.2,29.73,North,360,8.0,10.0,63,0.00,,,0.10,Wunderground v.1.15,2013-08-13 20:54:00,
2013-08-13 16:57:00,84.1,69.7,29.73,North,360,7.0,10.0,62,0.00,,,0.10,Wunderground v.1.15,2013-08-13 20:57:00,
2013-08-13 17:00:00,84.1,70.1,29.73,North,360,6.0,6.0,63,0.00,,,0.10,Wunderground v.1.15,2013-08-13 21:00:00,
2013-08-13 17:01:00,84.0,70.0,29.73,North,360,5.0,6.0,63,0.00,,,0.10,Wunderground v.1.15,2013-08-13 21:01:00,
2013-08-13 17:05:00,83.9,70.4,29.73,North,360,4.0,6.0,64,0.00,,,0.10,Wunderground v.1.15,2013-08-13 21:05:00,
2013-08-13 17:09:00,83.7,70.2,29.73,North,360,4.0,4.0,64,0.00,,,0.10,Wunderground v.1.15,2013-08-13 21:09:00,
2013-08-13 17:11:00,83.7,70.2,29.73,North,360,4.0,4.0,64,0.00,,,0.10,Wunderground v.1.15,2013-08-13 21:11:00,
2013-08-13 17:14:00,83.8,69.9,29.73,North,360,4.0,4.0,63,0.00,,,0.10,Wunderground v.1.15,2013-08-13 21:14:00,
2013-08-13 17:15:00,83.9,70.4,29.72,North,360,3.0,4.0,64,0.00,,,0.10,Wunderground v.1.15,2013-08-13 21:15:00,
2013-08-13 17:19:00,84.2,70.7,29.73,North,360,2.0,4.0,64,0.00,,,0.10,Wunderground v.1.15,2013-08-13 21:19:00,
2013-08-13 17:21:00,84.4,70.4,29.72,North,360,3.0,4.0,63,0.00,,,0.10,Wunderground v.1.15,2013-08-13 21:21:00,
2013-08-13 17:24:00,84.5,70.5,29.72,North,360,4.0,7.0,63,0.00,,,0.10,Wunderground v.1.15,2013-08-13 21:24:00,
2013-08-13 17:27:00,84.5,70.5,29.72,North,360,4.0,7.0,63,0.00,,,0.10,Wunderground v.1.15,2013-08-13 21:27:00,
2013-08-13 17:29:00,84.6,70.6,29.73,North,360,4.0,4.0,63,0.00,,,0.10,Wunderground v.1.15,2013-08-13 21:29:00,
2013-08-13 17:31:00,84.8,70.3,29.72,North,360,2.0,4.0,62,0.00,,,0.10,Wunderground v.1.15,2013-08-13 21:31:00,
2013-08-13 17:35:00,85.4,70.4,29.72,North,360,2.0,6.0,61,0.00,,,0.10,Wunderground v.1.15,2013-08-13 21:35:00,
2013-08-13 17:37:00,85.5,70.5,29.73,North,360,2.0,6.0,61,0.00,,,0.10,Wunderground v.1.15,2013-08-13 21:37:00,
2013-08-13 17:41:00,85.3,70.8,29.72,North,360,4.0,9.0,62,0.00,,,0.10,Wunderground v.1.15,2013-08-13 21:41:00,
2013-08-13 17:44:00,85.1,70.6,29.72,North,360,3.0,9.0,62,0.00,,,0.10,Wunderground v.1.15,2013-08-13 21:44:00,
2013-08-13 17:46:00,85.0,71.0,29.72,North,360,3.0,9.0,63,0.00,,,0.10,Wunderground v.1.15,2013-08-13 21:46:00,
2013-08-13 17:47:00,85.0,71.0,29.72,North,360,3.0,9.0,63,0.00,,,0.10,Wunderground v.1.15,2013-08-13 21:47:00,
2013-08-13 17:49:00,84.9,70.9,29.72,North,360,3.0,3.0,63,0.00,,,0.10,Wunderground v.1.15,2013-08-13 21:49:00,
2013-08-13 17:51:00,84.9,70.9,29.72,North,360,2.0,3.0,63,0.00,,,0.10,Wunderground v.1.15,2013-08-13 21:51:00,
2013-08-13 17:54:00,84.9,70.9,29.72,North,360,2.0,4.0,63,0.00,,,0.10,Wunderground v.1.15,2013-08-13 21:54:00,
2013-08-13 17:57:00,84.9,70.9,29.73,North,360,3.0,4.0,63,0.00,,,0.10,Wunderground v.1.15,2013-08-13 21:57:00,
2013-08-13 18:02:00,85.1,70.6,29.73,North,360,4.0,5.0,62,0.00,,,0.10,Wunderground v.1.15,2013-08-13 22:02:00,
2013-08-13 18:03:00,85.1,70.1,29.73,North,360,4.0,5.0,61,0.00,,,0.10,Wunderground v.1.15,2013-08-13 22:03:00,
2013-08-13 18:05:00,85.1,70.6,29.73,North,360,4.0,5.0,62,0.00,,,0.10,Wunderground v.1.15,2013-08-13 22:05:00,
2013-08-13 18:09:00,85.3,70.3,29.73,North,360,4.0,6.0,61,0.00,,,0.10,Wunderground v.1.15,2013-08-13 22:09:00,
2013-08-13 18:11:00,85.2,70.2,29.73,North,360,4.0,6.0,61,0.00,,,0.10,Wunderground v.1.15,2013-08-13 22:11:00,
2013-08-13 18:14:00,85.3,70.3,29.73,North,360,4.0,6.0,61,0.00,,,0.10,Wunderground v.1.15,2013-08-13 22:14:00,
2013-08-13 18:16:00,85.3,70.3,29.73,North,360,4.0,6.0,61,0.00,,,0.10,Wunderground v.1.15,2013-08-13 22:16:00,
2013-08-13 18:17:00,85.1,70.1,29.73,North,360,5.0,9.0,61,0.00,,,0.10,Wunderground v.1.15,2013-08-13 22:17:00,
2013-08-13 18:19:00,84.9,69.9,29.73,North,360,5.0,8.0,61,0.00,,,0.10,Wunderground v.1.15,2013-08-13 22:19:00,
2013-08-13 18:24:00,84.9,70.4,29.73,North,360,6.0,8.0,62,0.00,,,0.10,Wunderground v.1.15,2013-08-13 22:24:00,
2013-08-13 18:25:00,84.9,70.4,29.73,North,360,6.0,8.0,62,0.00,,,0.10,Wunderground v.1.15,2013-08-13 22:25:00,
2013-08-13 18:31:00,84.5,70.0,29.73,North,360,4.0,5.0,62,0.00,,,0.10,Wunderground v.1.15,2013-08-13 22:31:00,
2013-08-13 18:35:00,84.6,70.1,29.73,North,360,4.0,5.0,62,0.00,,,0.10,Wunderground v.1.15,2013-08-13 22:35:00,
2013-08-13 18:39:00,84.5,70.0,29.73,North,360,2.0,4.0,62,0.00,,,0.10,Wunderground v.1.15,2013-08-13 22:39:00,
2013-08-13 18:41:00,84.5,70.0,29.72,North,360,2.0,4.0,62,0.00,,,0.10,Wunderground v.1.15,2013-08-13 22:41:00,
2013-08-13 18:44:00,84.6,69.7,29.72,North,360,2.0,4.0,61,0.00,,,0.10,Wunderground v.1.15,2013-08-13 22:44:00,
2013-08-13 18:45:00,84.8,70.3,29.72,North,360,2.0,4.0,62,0.00,,,0.10,Wunderground v.1.15,2013-08-13 22:45:00,
2013-08-13 18:49:00,84.9,69.9,29.72,North,360,2.0,2.0,61,0.00,,,0.10,Wunderground v.1.15,2013-08-13 22:49:00,
2013-08-13 18:51:00,85.0,70.0,29.72,North,360,2.0,3.0,61,0.00,,,0.10,Wunderground v.1.15,2013-08-13 22:51:00,
2013-08-13 18:54:00,85.1,69.7,29.72,North,360,2.0,3.0,60,0.00,,,0.10,Wunderground v.1.15,2013-08-13 22:54:00,
2013-08-13 18:57:00,85.2,69.7,29.72,North,360,1.0,3.0,60,0.00,,,0.10,Wunderground v.1.15,2013-08-13 22:57:00,
2013-08-13 19:00:00,85.2,69.7,29.72,North,360,1.0,4.0,60,0.00,,,0.10,Wunderground v.1.15,2013-08-13 23:00:00,
2013-08-13 19:02:00,85.0,69.6,29.72,North,360,2.0,7.0,60,0.00,,,0.10,Wunderground v.1.15,2013-08-13 23:02:00,
2013-08-13 19:03:00,84.8,69.4,29.72,North,360,3.0,7.0,60,0.00,,,0.10,Wunderground v.1.15,2013-08-13 23:03:00,
2013-08-13 19:05:00,84.7,69.3,29.72,North,360,3.0,7.0,60,0.00,,,0.10,Wunderground v.1.15,2013-08-13 23:05:00,
2013-08-13 19:09:00,84.6,69.7,29.72,North,360,3.0,3.0,61,0.00,,,0.10,Wunderground v.1.15,2013-08-13 23:09:00,
2013-08-13 19:11:00,84.6,69.2,29.72,North,360,3.0,6.0,60,0.00,,,0.10,Wunderground v.1.15,2013-08-13 23:11:00,
2013-08-13 19:14:00,84.6,69.2,29.72,North,360,3.0,6.0,60,0.00,,,0.10,Wunderground v.1.15,2013-08-13 23:14:00,
2013-08-13 19:16:00,84.5,69.6,29.72,North,360,3.0,6.0,61,0.00,,,0.10,Wunderground v.1.15,2013-08-13 23:16:00,
2013-08-13 19:19:00,84.5,69.6,29.73,North,360,3.0,6.0,61,0.00,,,0.10,Wunderground v.1.15,2013-08-13 23:19:00,
2013-08-13 19:25:00,84.6,69.2,29.72,North,360,2.0,6.0,60,0.00,,,0.10,Wunderground v.1.15,2013-08-13 23:25:00,
2013-08-13 19:27:00,84.6,69.7,29.72,North,360,2.0,6.0,61,0.00,,,0.10,Wunderground v.1.15,2013-08-13 23:27:00,
2013-08-13 19:33:00,84.6,69.7,29.73,North,360,2.0,4.0,61,0.00,,,0.10,Wunderground v.1.15,2013-08-13 23:33:00,
2013-08-13 19:35:00,84.6,69.7,29.73,North,360,2.0,4.0,61,0.00,,,0.10,Wunderground v.1.15,2013-08-13 23:35:00,
2013-08-13 19:37:00,84.6,69.7,29.73,North,360,3.0,4.0,61,0.00,,,0.10,Wunderground v.1.15,2013-08-13 23:37:00,
2013-08-13 19:41:00,84.6,70.1,29.74,North,360,3.0,5.0,62,0.00,,,0.10,Wunderground v.1.15,2013-08-13 23:41:00,
2013-08-13 19:48:00,84.4,69.5,29.74,North,360,4.0,5.0,61,0.00,,,0.10,Wunderground v.1.15,2013-08-13 23:48:00,
2013-08-13 19:49:00,84.3,69.4,29.74,North,360,3.0,3.0,61,0.00,,,0.10,Wunderground v.1.15,2013-08-13 23:49:00,
2013-08-13 19:51:00,84.3,69.4,29.73,North,360,3.0,3.0,61,0.00,,,0.10,Wunderground v.1.15,2013-08-13 23:51:00,
2013-08-13 19:55:00,84.4,69.5,29.73,North,360,1.0,4.0,61,0.00,,,0.10,Wunderground v.1.15,2013-08-13 23:55:00,
2013-08-13 19:57:00,84.3,69.4,29.73,North,360,1.0,4.0,61,0.00,,,0.10,Wunderground v.1.15,2013-08-13 23:57:00,
2013-08-13 19:59:00,84.3,69.4,29.73,North,360,1.0,1.0,61,0.00,,,0.10,Wunderground v.1.15,2013-08-13 23:59:00,
2013-08-13 20:03:00,84.3,69.4,29.72,North,360,2.0,5.0,61,0.00,,,0.10,Wunderground v.1.15,2013-08-14 00:03:00,
2013-08-13 20:05:00,84.3,69.4,29.72,North,360,2.0,5.0,61,0.00,,,0.10,Wunderground v.1.15,2013-08-14 00:05:00,
2013-08-13 20:09:00,84.2,69.3,29.72,North,360,2.0,2.0,61,0.00,,,0.10,Wunderground v.1.15,2013-08-14 00:09:00,
2013-08-13 20:11:00,84.2,69.3,29.73,North,360,3.0,3.0,61,0.00,,,0.10,Wunderground v.1.15,2013-08-14 00:11:00,
2013-08-13 20:13:00,84.1,69.7,29.73,North,360,3.0,3.0,62,0.00,,,0.10,Wunderground v.1.15,2013-08-14 00:13:00,
2013-08-13 20:18:00,84.0,70.5,29.73,North,360,2.0,5.0,64,0.00,,,0.10,Wunderground v.1.15,2013-08-14 00:18:00,
2013-08-13 20:19:00,83.9,70.9,29.72,North,360,3.0,4.0,65,0.00,,,0.10,Wunderground v.1.15,2013-08-14 00:19:00,
2013-08-13 20:21:00,83.8,71.2,29.72,North,360,4.0,4.0,66,0.00,,,0.10,Wunderground v.1.15,2013-08-14 00:21:00,
2013-08-13 20:24:00,83.7,71.6,29.72,North,360,3.0,4.0,67,0.00,,,0.10,Wunderground v.1.15,2013-08-14 00:24:00,
2013-08-13 20:27:00,83.5,71.8,29.74,North,360,4.0,18.0,68,0.00,,,0.10,Wunderground v.1.15,2013-08-14 00:27:00,
2013-08-13 20:31:00,78.3,70.1,29.76,North,360,11.0,24.0,76,3.92,,,0.15,Wunderground v.1.15,2013-08-14 00:31:00,
2013-08-13 20:35:00,75.6,69.4,29.78,North,360,16.0,24.0,81,4.09,,,0.30,Wunderground v.1.15,2013-08-14 00:35:00,
2013-08-13 20:37:00,74.3,68.8,29.79,North,360,16.0,24.0,83,4.97,,,0.45,Wunderground v.1.15,2013-08-14 00:37:00,
2013-08-13 20:41:00,72.4,67.6,29.78,North,360,11.0,13.0,85,2.68,,,0.69,Wunderground v.1.15,2013-08-14 00:41:00,
2013-08-13 20:44:00,72.0,68.2,29.78,North,360,9.0,13.0,88,1.09,,,0.75,Wunderground v.1.15,2013-08-14 00:44:00,
2013-08-13 20:45:00,71.8,68.4,29.78,North,360,6.0,13.0,89,0.62,,,0.77,Wunderground v.1.15,2013-08-14 00:45:00,
2013-08-13 20:51:00,71.4,68.6,29.77,North,360,3.0,6.0,91,0.19,,,0.79,Wunderground v.1.15,2013-08-14 00:51:00,
2013-08-13 20:54:00,71.5,69.1,29.77,North,360,4.0,6.0,92,0.18,,,0.79,Wunderground v.1.15,2013-08-14 00:54:00,
2013-08-13 20:55:00,71.5,69.1,29.78,North,360,4.0,6.0,92,0.12,,,0.79,Wunderground v.1.15,2013-08-14 00:55:00,
2013-08-13 20:57:00,71.6,69.2,29.77,North,360,4.0,6.0,92,0.08,,,0.79,Wunderground v.1.15,2013-08-14 00:57:00,
2013-08-13 20:59:00,71.6,69.2,29.77,North,360,3.0,3.0,92,0.06,,,0.79,Wunderground v.1.15,2013-08-14 00:59:00,
2013-08-13 21:02:00,71.6,69.2,29.77,North,360,2.0,3.0,92,0.05,,,0.79,Wunderground v.1.15,2013-08-14 01:02:00,
2013-08-13 21:04:00,71.6,69.2,29.77,North,360,1.0,3.0,92,0.04,,,0.79,Wunderground v.1.15,2013-08-14 01:04:00,
2013-08-13 21:05:00,71.6,69.2,29.77,North,360,1.0,3.0,92,0.04,,,0.79,Wunderground v.1.15,2013-08-14 01:05:00,
2013-08-13 21:07:00,71.7,69.3,29.77,North,360,0.0,3.0,92,0.00,,,0.79,Wunderground v.1.15,2013-08-14 01:07:00,
2013-08-13 21:09:00,71.8,69.3,29.77,North,360,0.0,0.0,92,0.00,,,0.79,Wunderground v.1.15,2013-08-14 01:09:00,
2013-08-13 21:13:00,72.0,69.5,29.78,North,360,0.0,0.0,92,0.00,,,0.79,Wunderground v.1.15,2013-08-14 01:13:00,
2013-08-13 21:16:00,72.0,69.5,29.77,North,360,0.0,2.0,92,0.00,,,0.79,Wunderground v.1.15,2013-08-14 01:16:00,
2013-08-13 21:18:00,72.2,70.1,29.77,North,360,0.0,2.0,93,0.00,,,0.79,Wunderground v.1.15,2013-08-14 01:18:00,
2013-08-13 21:19:00,72.2,70.1,29.77,North,360,0.0,0.0,93,0.00,,,0.79,Wunderground v.1.15,2013-08-14 01:19:00,
2013-08-13 21:24:00,72.3,70.2,29.77,North,360,1.0,3.0,93,0.00,,,0.79,Wunderground v.1.15,2013-08-14 01:24:00,
2013-08-13 21:26:00,72.3,70.2,29.77,North,360,1.0,3.0,93,0.00,,,0.79,Wunderground v.1.15,2013-08-14 01:26:00,
2013-08-13 21:27:00,72.4,70.3,29.77,North,360,1.0,3.0,93,0.00,,,0.79,Wunderground v.1.15,2013-08-14 01:27:00,
2013-08-13 21:31:00,72.5,70.4,29.77,North,360,1.0,1.0,93,0.00,,,0.79,Wunderground v.1.15,2013-08-14 01:31:00,
2013-08-13 21:35:00,72.5,70.4,29.77,North,360,0.0,1.0,93,0.00,,,0.79,Wunderground v.1.15,2013-08-14 01:35:00,
2013-08-13 21:37:00,72.4,70.3,29.77,North,360,0.0,1.0,93,0.00,,,0.79,Wunderground v.1.15,2013-08-14 01:37:00,
2013-08-13 21:40:00,72.3,70.2,29.78,North,360,0.0,0.0,93,0.00,,,0.79,Wunderground v.1.15,2013-08-14 01:40:00,
2013-08-13 21:44:00,72.4,70.3,29.78,North,360,0.0,0.0,93,0.00,,,0.79,Wunderground v.1.15,2013-08-14 01:44:00,
2013-08-13 21:46:00,72.3,70.2,29.78,North,360,0.0,0.0,93,0.00,,,0.79,Wunderground v.1.15,2013-08-14 01:46:00,
2013-08-13 21:49:00,72.3,70.2,29.78,North,360,0.0,0.0,93,0.00,,,0.79,Wunderground v.1.15,2013-08-14 01:49:00,
2013-08-13 21:51:00,72.3,70.2,29.78,North,360,0.0,0.0,93,0.00,,,0.79,Wunderground v.1.15,2013-08-14 01:51:00,
2013-08-13 21:54:00,72.3,70.2,29.78,North,360,0.0,2.0,93,0.00,,,0.79,Wunderground v.1.15,2013-08-14 01:54:00,
2013-08-13 21:55:00,72.3,70.2,29.78,North,360,0.0,3.0,93,0.00,,,0.79,Wunderground v.1.15,2013-08-14 01:55:00,
2013-08-13 22:01:00,72.6,70.5,29.78,North,360,1.0,1.0,93,0.00,,,0.79,Wunderground v.1.15,2013-08-14 02:01:00,
2013-08-13 22:03:00,72.7,70.2,29.78,North,360,1.0,1.0,92,0.00,,,0.79,Wunderground v.1.15,2013-08-14 02:03:00,
2013-08-13 22:07:00,72.9,70.4,29.78,North,360,1.0,1.0,92,0.00,,,0.79,Wunderground v.1.15,2013-08-14 02:07:00,
2013-08-13 22:09:00,73.0,70.5,29.78,North,360,0.0,0.0,92,0.00,,,0.79,Wunderground v.1.15,2013-08-14 02:09:00,
2013-08-13 22:14:00,73.0,70.5,29.78,North,360,0.0,0.0,92,0.00,,,0.79,Wunderground v.1.15,2013-08-14 02:14:00,
2013-08-13 22:17:00,73.2,70.7,29.78,North,360,0.0,0.0,92,0.00,,,0.79,Wunderground v.1.15,2013-08-14 02:17:00,
2013-08-13 22:19:00,73.2,70.7,29.78,North,360,0.0,0.0,92,0.00,,,0.79,Wunderground v.1.15,2013-08-14 02:19:00,
2013-08-13 22:21:00,73.2,70.4,29.78,North,360,0.0,0.0,91,0.00,,,0.79,Wunderground v.1.15,2013-08-14 02:21:00,
2013-08-13 22:24:00,73.2,70.4,29.78,North,360,0.0,0.0,91,0.00,,,0.79,Wunderground v.1.15,2013-08-14 02:24:00,
2013-08-13 22:25:00,73.1,70.3,29.78,North,360,0.0,0.0,91,0.00,,,0.79,Wunderground v.1.15,2013-08-14 02:25:00,
2013-08-13 22:29:00,73.1,70.3,29.78,North,360,0.0,0.0,91,0.00,,,0.79,Wunderground v.1.15,2013-08-14 02:29:00,
2013-08-13 22:31:00,73.0,70.2,29.79,North,360,0.0,0.0,91,0.00,,,0.79,Wunderground v.1.15,2013-08-14 02:31:00,
2013-08-13 22:33:00,73.0,70.5,29.79,North,360,0.0,0.0,92,0.00,,,0.79,Wunderground v.1.15,2013-08-14 02:33:00,
2013-08-13 22:38:00,73.0,70.5,29.79,North,360,0.0,0.0,92,0.00,,,0.79,Wunderground v.1.15,2013-08-14 02:38:00,
2013-08-13 22:39:00,73.0,70.5,29.79,North,360,0.0,0.0,92,0.00,,,0.79,Wunderground v.1.15,2013-08-14 02:39:00,
2013-08-13 22:41:00,73.1,70.6,29.78,North,360,0.0,0.0,92,0.00,,,0.79,Wunderground v.1.15,2013-08-14 02:41:00,
2013-08-13 22:45:00,73.3,70.8,29.78,North,360,0.0,0.0,92,0.00,,,0.79,Wunderground v.1.15,2013-08-14 02:45:00,
2013-08-13 22:47:00,73.3,70.5,29.79,North,360,1.0,3.0,91,0.00,,,0.79,Wunderground v.1.15,2013-08-14 02:47:00,
2013-08-13 22:51:00,73.2,70.1,29.79,North,360,2.0,3.0,90,0.00,,,0.79,Wunderground v.1.15,2013-08-14 02:51:00,
2013-08-13 22:54:00,73.1,70.0,29.79,North,360,2.0,3.0,90,0.00,,,0.79,Wunderground v.1.15,2013-08-14 02:54:00,
2013-08-13 22:57:00,73.2,70.1,29.79,North,360,2.0,3.0,90,0.00,,,0.79,Wunderground v.1.15,2013-08-14 02:57:00,
2013-08-13 22:59:00,73.3,70.2,29.78,North,360,1.0,2.0,90,0.00,,,0.79,Wunderground v.1.15,2013-08-14 02:59:00,
2013-08-13 23:01:00,73.3,70.2,29.78,North,360,1.0,2.0,90,0.00,,,0.79,Wunderground v.1.15,2013-08-14 03:01:00,
2013-08-13 23:05:00,73.5,70.4,29.78,North,360,1.0,2.0,90,0.00,,,0.79,Wunderground v.1.15,2013-08-14 03:05:00,
2013-08-13 23:08:00,73.7,70.6,29.78,North,360,1.0,2.0,90,0.00,,,0.79,Wunderground v.1.15,2013-08-14 03:08:00,
2013-08-13 23:14:00,73.9,70.5,29.78,North,360,0.0,1.0,89,0.00,,,0.79,Wunderground v.1.15,2013-08-14 03:14:00,
2013-08-13 23:17:00,73.8,70.0,29.78,North,360,1.0,2.0,88,0.00,,,0.79,Wunderground v.1.15,2013-08-14 03:17:00,
2013-08-13 23:19:00,73.8,70.0,29.78,North,360,1.0,5.0,88,0.00,,,0.79,Wunderground v.1.15,2013-08-14 03:19:00,
2013-08-13 23:24:00,73.9,69.8,29.78,North,360,2.0,5.0,87,0.00,,,0.79,Wunderground v.1.15,2013-08-14 03:24:00,
2013-08-13 23:27:00,73.9,70.1,29.78,North,360,3.0,5.0,88,0.00,,,0.79,Wunderground v.1.15,2013-08-14 03:27:00,
2013-08-13 23:33:00,74.0,70.2,29.78,North,360,3.0,3.0,88,0.00,,,0.79,Wunderground v.1.15,2013-08-14 03:33:00,
2013-08-13 23:35:00,74.1,70.3,29.78,North,360,3.0,3.0,88,0.00,,,0.79,Wunderground v.1.15,2013-08-14 03:35:00,
2013-08-13 23:39:00,74.2,70.4,29.78,North,360,2.0,2.0,88,0.00,,,0.79,Wunderground v.1.15,2013-08-14 03:39:00,
2013-08-13 23:44:00,74.1,70.0,29.78,North,360,2.0,4.0,87,0.00,,,0.79,Wunderground v.1.15,2013-08-14 03:44:00,
2013-08-13 23:45:00,74.1,70.3,29.78,North,360,2.0,4.0,88,0.00,,,0.79,Wunderground v.1.15,2013-08-14 03:45:00,
2013-08-13 23:47:00,74.1,70.3,29.78,North,360,2.0,8.0,88,0.00,,,0.79,Wunderground v.1.15,2013-08-14 03:47:00,
2013-08-13 23:49:00,74.2,70.4,29.78,North,360,3.0,3.0,88,0.00,,,0.79,Wunderground v.1.15,2013-08-14 03:49:00,
2013-08-13 23:51:00,74.2,70.4,29.79,North,360,2.0,4.0,88,0.00,,,0.79,Wunderground v.1.15,2013-08-14 03:51:00,
2013-08-13 23:53:00,74.3,70.5,29.79,North,360,2.0,4.0,88,0.00,,,0.79,Wunderground v.1.15,2013-08-14 03:53:00,
2013-08-13 23:57:00,74.3,70.2,29.79,North,360,2.0,5.0,87,0.00,,,0.79,Wunderground v.1.15,2013-08-14 03:57:00,